Regional Weather Roundup
Issued by NWS Cleveland, OH

Home | Current Version | Previous Version | Graphics & Text | Print | Product List | Glossary On
Versions: 1 2 3 4 5 6 7 8 9 10 11 12 13 14 15 16 17 18 19 20 21 22 23 24 25 26 27 28 29 30 31 32 33 34 35 36 37 38 39 40 41 42 43 44 45 46 47 48 49 50
000
ASUS41 KCLE 211002
RWRCLE
OHIO REGIONAL WEATHER ROUNDUP
NATIONAL WEATHER SERVICE CLEVELAND, OH
600 AM EDT MON MAY 21 2018

NOTE: "FAIR" INDICATES FEW OR NO CLOUDS BELOW 12,000 FEET WITH NO
SIGNIFICANT WEATHER AND/OR OBSTRUCTIONS TO VISIBILITY.

OHZ001>008-015>018-024>027-034-035-043-044-211100-
   NORTHWEST OHIO

CITY           SKY/WX    TMP DP  RH WIND       PRES   REMARKS
DEFIANCE       CLOUDY    57  53  86 E12       30.19R
FINDLAY        CLOUDY    57  49  74 E8        30.18R
TOLEDO EXPRESS MOCLDY    54  53  97 E3        30.20R
TOLEDO EXEC    FAIR      54  49  83 NE7       30.21S
LIMA           CLOUDY    55  52  89 E9        30.17R
$$

OHZ009>014-019>023-028>033-038-089-211100-
   NORTHEAST OHIO

CITY           SKY/WX    TMP DP  RH WIND       PRES   REMARKS
CLE-HOPKINS    MOCLDY    53  47  79 NE5       30.22R
CLE-LAKEFRONT  FAIR      53  46  77 NE5       30.20R
CUY CO. ARPT   NOT AVBL
LORAIN-ELYRIA  FAIR      51  44  77 NE8       30.22R
ASHTABULA      MOCLDY    48  48 100 CALM      30.21S FOG
AKRON-CANTON   FAIR      55  51  86 NE8       30.19S
WOOSTER        FAIR      53  52  96 NE6       30.19S
MANSFIELD      FAIR      52  52 100 NE3       30.18S
YOUNGSTOWN     CLOUDY    53  51  93 E3        30.19S
$$

OHZ042-051>053-060>062-070>072-077>081-211100-
  SOUTHWEST OHIO

CITY           SKY/WX    TMP DP  RH WIND       PRES   REMARKS
CINC-COVINGTON CLOUDY    67  64  90 E8        30.10R
CINC-LUNKEN    FAIR      65  65 100 NE3       30.11R
HAMILTON       FAIR      64  61  90 NE5       30.12R
DAYTON         CLOUDY    61  59  93 NE7       30.15R
WRIGHT-PAT AFB NOT AVBL
DAYTON GENERAL FAIR      64  59  83 E10       30.12R
WILMINGTON     FAIR      62  60  93 NE9       30.12R
$$

OHZ036-037-039>041-045>050-054>059-063>069-073>076-082>088-211100-
  CENTRAL AND SOUTHEAST OHIO

CITY           SKY/WX    TMP DP  RH WIND       PRES   REMARKS
COLUMBUS       TSTM      62  57  83 VRB3      30.16R
OSU AIRPORT    LGT RAIN  60  57  89 NE8       30.15R
BOLTON FIELD   MOCLDY    60  59  95 E3        30.16S
RICKENBACK AFB LGT RAIN  60  60  99 MISG      30.14S
NEWARK         LGT RAIN  60  56  86 NE3       30.17R
MARION         FAIR      55  52  89 NE5       30.18R
LANCASTER      LGT RAIN  62  58  86 E9        30.15R
ZANESVILLE     FAIR      60  56  86 N5        30.17R
NEW PHILLY     NOT AVBL
$$




USA.gov is the U.S. government's official web portal to all federal, state and local government web resources and services.